PROBA-1 1 26958U 01049B 26208.62396360 .00002330 00000+0 15240-3 0 9999 2 26958 97.9612 218.5735 0054427 347.9802 12.0122 15.07664670349716 CUTE-1 (CO-55) 1 27844U 03031E 26208.00796652 .00000310 00000+0 15310-3 0 9991 2 27844 98.6748 216.0679 0010791 72.3188 287.9168 14.24357848197348 CUBESAT XI-IV (CO-57) 1 27848U 03031J 26207.45419514 .00000283 00000+0 14333-3 0 9995 2 27848 98.6781 215.2019 0010745 90.2969 269.9441 14.23639776196966 APRIZESAT 4 1 35684U 09041D 26208.17608325 .00000855 00000+0 10823-3 0 9994 2 35684 98.1396 284.2909 0043047 190.1035 169.9318 14.83929494917293 APRIZESAT 3 1 35686U 09041F 26208.08873838 .00001118 00000+0 10126-3 0 9998 2 35686 98.2106 3.2383 0060481 295.8068 63.6920 14.96328660922343 PROBA-2 1 36037U 09059B 26208.33645423 .00000209 00000+0 59245-4 0 9999 2 36037 98.2463 31.1361 0013854 151.9029 208.2918 14.54878245887366 APRIZESAT 5 1 37792U 11044E 26207.79856913 .00000854 00000+0 11500-3 0 9999 2 37792 98.2447 141.9642 0050904 234.3354 125.3113 14.81143472804657 APRIZESAT 6 1 37793U 11044F 26208.26414197 .00000810 00000+0 12137-3 0 9996 2 37793 98.2325 119.5768 0042179 319.2420 157.6088 14.76972569803069 PROBA-V 1 39159U 13021A 26208.39217657 .00000064 00000+0 46010-4 0 9996 2 39159 98.3618 185.0203 0004712 30.6679 329.4775 14.23605384686832 APRIZESAT 7 1 39416U 13066A 26208.33699700 .00001461 00000+0 14915-3 0 9998 2 39416 97.7730 160.9862 0037348 78.6976 281.8435 14.91645181687213 APRIZESAT 8 1 39425U 13066K 26208.56477259 .00000945 00000+0 10779-3 0 9996 2 39425 97.8236 155.4748 0046540 151.3593 209.0195 14.87714188685677 BUGSAT-1 (TITA) 1 40014U 14033E 26208.56837432 .00004265 00000+0 22384-3 0 9994 2 40014 98.0435 303.4905 0028552 45.5066 314.8492 15.15990962661957 SAUDISAT 4 1 40016U 14033G 26207.95196691 .00000601 00000+0 85910-4 0 9998 2 40016 97.7633 352.7239 0043496 305.0417 54.6717 14.79586625651954 APRIZESAT 9 1 40018U 14033J 26208.25261615 .00000656 00000+0 10337-3 0 9993 2 40018 97.9108 340.4829 0067382 71.9534 288.9002 14.74266064649462 APRIZESAT 10 1 40019U 14033K 26208.60267165 .00000738 00000+0 12293-3 0 9993 2 40019 97.9694 334.6708 0079611 143.9658 216.6952 14.70925649648197 TECHDEMOSAT-1 (TDS-1) 1 40076U 14037H 26208.41942139 .00008147 00000+0 45474-3 0 9999 2 40076 98.3827 204.6412 0007764 124.7582 235.4379 15.13830084654313 TECHNOSAT 1 42829U 17042E 26208.00669635 .00002452 00000+0 17579-3 0 9996 2 42829 97.4317 4.1649 0016483 322.0542 37.9522 15.05160742492691 FLYING LAPTOP 1 42831U 17042G 26208.64338344 .00003171 00000+0 24963-3 0 9993 2 42831 97.4857 2.6700 0018854 352.6602 7.4344 15.01378026492522 HAWK-A 1 43765U 18099H 26208.57404547 .00008031 00000+0 31782-3 0 9991 2 43765 97.3893 260.2889 0035750 141.2548 219.1264 15.25113251419258 HAWK-B 1 43794U 18099AN 26208.11875196 .00006469 00000+0 27219-3 0 9998 2 43794 97.3944 259.1701 0032520 160.4346 199.8147 15.23239303419112 HAWK-C 1 43799U 18099AT 26208.13073602 .00009342 00000+0 32935-3 0 9991 2 43799 97.3871 260.9628 0041247 142.3112 218.1031 15.28665337420013 SALSAT 1 46495U 20068K 26207.97313825 .00007917 00000+0 27242-3 0 9992 2 46495 97.8862 213.4781 0010474 153.1467 207.0317 15.30316182321443 HAWK-2C 1 47502U 21006CT 26208.57213708 .00006735 00000+0 19968-3 0 9994 2 47502 97.2261 252.0830 0008360 65.6299 294.5817 15.35123157305693 HAWK-2A 1 47505U 21006CW 26208.11787328 .00007322 00000+0 21672-3 0 9999 2 47505 97.2303 252.3391 0007978 70.9275 289.2832 15.35149433305621 HAWK-2B 1 47508U 21006CZ 26208.11039679 .00007821 00000+0 23031-3 0 9996 2 47508 97.2174 250.6009 0008481 68.8277 291.3872 15.35282912305623 HAWK-3B 1 48931U 21059BE 26208.12887218 .00046705 00000+0 34497-3 0 9998 2 48931 97.6623 48.7133 0005308 160.1919 199.9550 15.72846999284124 HAWK-3C 1 48948U 21059BX 26208.51030082 .00041234 00000+0 30450-3 0 9995 2 48948 97.6739 54.8854 0005890 158.7602 201.3907 15.72872091284188 HAWK-3A 1 48957U 21059CG 26208.51017241 .00045901 00000+0 33868-3 0 9998 2 48957 97.6687 52.0586 0005504 161.0716 199.0753 15.72873266284184 HAWK-5C 1 52754U 22057Y 26207.95276579 .00018657 00000+0 30397-3 0 9997 2 52754 97.6624 10.2327 0002475 285.4895 74.6083 15.52687836232515 HAWK-5B 1 52756U 22057AA 26208.40371969 .00018709 00000+0 30457-3 0 9994 2 52756 97.6638 9.0693 0003175 271.9209 88.1680 15.52706727232582 HAWK-5A 1 52757U 22057AB 26208.40351052 .00018969 00000+0 30877-3 0 9990 2 52757 97.6634 9.8986 0003054 277.1001 82.9903 15.52707920232582 HAWK-6B 1 55324U 23011A 26208.11471228 .00004534 00000+0 19547-3 0 9994 2 55324 40.4988 119.1291 0004328 299.7043 60.3335 15.23244940193938 HAWK-6C 1 55326U 23011C 26208.11408260 .00004600 00000+0 19816-3 0 9995 2 55326 40.4977 115.9675 0004821 296.0740 63.9573 15.23244033193947 HAWK-6A 1 55327U 23011D 26208.11411653 .00004612 00000+0 19869-3 0 9997 2 55327 40.4989 117.5954 0004597 291.9807 68.0513 15.23245022193946 HAWK-7A 1 56191U 23054P 26208.59324383 .00005649 00000+0 21110-3 0 9992 2 56191 97.2649 94.9025 0001170 223.9763 136.1384 15.27745350183198 HAWK-7B 1 56193U 23054R 26208.65866502 .00005713 00000+0 21342-3 0 9994 2 56193 97.2676 93.2444 0000168 217.7390 142.3838 15.27748538183206 HAWK-7C 1 56200U 23054Y 26208.52754700 .00005742 00000+0 21450-3 0 9997 2 56200 97.2653 93.8728 0000713 196.3506 163.7711 15.27745567183181